Regional Weather Roundup
Issued by NWS

Home | Current Version | Previous Version | Graphics & Text | Print | Product List | Glossary On
Versions: 1 2 3 4 5 6 7 8 9 10 11 12 13 14 15 16 17 18 19 20 21 22 23 24 25 26 27 28 29 30 31 32 33 34 35 36 37 38 39 40 41 42 43 44 45 46 47 48 49 50
000
ASUS45 KBOI 250910
RWRID

IDAHO REGIONAL WEATHER ROUNDUP
NATIONAL WEATHER SERVICE BOISE ID
300 AM MDT MON MAY 25 2015

NOTE: "FAIR" INDICATES FEW OR NO CLOUDS BELOW 12000 FEET
WITH NO SIGNIFICANT WEATHER AND/OR OBSTRUCTIONS TO VISIBILITY

IDZ012-014-251000-
SOUTHWEST IDAHO


CITY           SKY/WX    TMP DP  RH WIND       PRES   REMARKS
BOISE          CLEAR     57  46  66 SE8       29.87S
CALDWELL       CLEAR     54  41  62 E7        29.86F
MOUNTAIN HOME  CLEAR     51  46  84 NE5       29.87S
$$

IDZ016-017-251000-
SOUTHCENTRAL IDAHO


CITY           SKY/WX    TMP DP  RH WIND       PRES   REMARKS
BURLEY         MOCLDY    44  42  93 CALM      29.91S
JEROME         CLOUDY    49  45  86 E9        29.91S
TWIN FALLS     CLOUDY    54  45  71 S12       29.88F
$$

IDZ019>023-251000-
SOUTHEAST IDAHO


CITY           SKY/WX    TMP DP  RH WIND       PRES   REMARKS
IDAHO FALLS    PTCLDY    48  45  89 CALM      29.93R
POCATELLO      CLEAR     50  46  86 S8        29.92S
REXBURG        MOCLDY    50  44  80 CALM      29.92S
$$

IDZ006-010-011-018-031-032-251000-
CENTRAL IDAHO MOUNTAINS


CITY           SKY/WX    TMP DP  RH WIND       PRES   REMARKS
MCCALL         CLEAR     43  39  86 CALM      29.91F
HAILEY         CLEAR     45  43  93 NW9       29.97S
STANLEY          N/A     35  32  88 CALM      30.01S
SALMON         PTCLDY    43  39  87 CALM      29.93R
CHALLIS        CLEAR     45  37  73 S3        29.95R
$$

IDZ002-004-006-007-026-251000-
NORTHERN IDAHO


CITY           SKY/WX    TMP DP  RH WIND       PRES   REMARKS
LEWISTON       MOCLDY    62  50  64 CALM      29.81S
LOWELL           N/A     52  51  97 N3        29.88R
COEUR D`ALENE  CLOUDY    55  50  82 NE10      29.85S
MULLAN PASS    MOCLDY    50  34  54 SE3       29.95F
$$


USA.gov is the U.S. government's official web portal to all federal, state and local government web resources and services.